Zurück zum Katalog

ARIANE 2 DEB

AktivGTO
NORAD 26717·DEBRIS·🇫🇷 France

Gestartet Jan 27, 1989 von Guiana Space Centre

Loading…

TLE

AlterndSource: Space-Track

Epoche: Sep 14, 2026, 10:33 UTC

1 26717U 89006C   26257.44003122 -.00000083  00000-0  82379-4 0  9999
2 26717   8.0196 112.1793 7159547   2.6105 199.6468  2.26368289212492

Verfolge ARIANE 2 DEB in Echtzeit mit AllMySat

Download on the App Store